WORLDVIEW 2 DEB, 41742

Orbit data source: Space-Track

WORLDVIEW 2 DEB, 41742 is space debris in SSO originally from a launch on Thu, 08 Oct 2009 UTC launched from the Air Force Western Test Range (AFWTR). Debris objects in space refer to the collection of defunct objects orbiting the Earth. Examples of debris include non-operational satellites, rocket bodies, and fragments generated from explosions, collisions, or faulty payload assembly.

Loading next visibility...
Identifier
41742, 2009-055K
Orbit
SSO
Country
Flag of USUS
Related business
Manufacturer
Ball
Mission
Spacecraft
Bus & Motor
Unknown
Mass
Unknown
Launch date (UTC)
2009-10-08 (16 years ago)
Launch vehicle
Unknown
Launch site
Air Force Western Test Range (AFWTR)
Object type
Payload
Rocket body
Debris
Shape & HBR
Unknown shape, 0.1 m
Radar Cross Section
Small (<0.1 m²)

Expand to show TLE details & history
Last TLE update: 19 hours ago

TLE from 19 hours ago
0 WORLDVIEW 2 DEB
1 41742U 09055K   25297.18305755  .00006674  00000-0  15208-2 0  9997
2 41742  98.3595  25.6115 0008387 208.0591 152.0156 14.56148712487738
Epoch: 2025-10-24T04:23Z
TLE epoch observation values (Epoch: 2025-10-24T04:23:36.172Z)
Latitude
0.00005°
Longitude
-73.12084°
Altitude
713.86 km
Speed
7.496 km/s
True Right ascension
01h 42m 26s
True Declination
0° 00' 00"
Sunlit
Object was in full shadow at epoch
Visualization orbit readout
Latitude
Unknown
Longitude
Unknown
Altitude
Unknown
Speed
Unknown
Apparent Right ascension
Unknown
Apparent Declination
Unknown
Sunlit
N/A
Visualization observer readout
Local Sidereal Time
19:06:01
Azimuth
Unknown
Elevation
Unknown
Doppler factor
Unknown
Orbital elements
Apogee altitude
708.669 km
Perigee altitude
696.792 km
Semi-major axis
7,080.868 km
Eccentricity
0.00084
Inclination
98.3595°
RAAN
25.6115°
Arg. of periapsis
208.0591°
True anomaly
152.06066°
Mean anomaly
152.0156°
Eccentric anomaly
152.03813°
Mean motion
3.64262 °/min
Orbital period
98.83 mins
BSTAR
0.0015208
Loading maneuver chart data...
Computing Atmospheric mass density...

Documentation

Showing up to 5 results
|